Location: Berlin
(52.5200°N, 13.4050°E)
Time: 13:49:24
(UTC+02:00)

ISS - Visible Passes

Search period start: 26 September 2023 00:00
Search period end: 06 October 2023 00:00
Orbit: 413 x 421 km, 51.6° (Epoch: 26 September)

Date Brightness Start Highest point End Pass type
(mag) Time Alt. Az. Time Alt. Az. Time Alt. Az.
26 Sep -3.6 20:04:21 10° W 20:07:40 65° SSW 20:09:48 20° ESE visible
26 Sep -1.4 21:41:19 10° W 21:42:43 18° WSW 21:42:43 18° WSW visible
27 Sep -2.6 20:53:02 10° W 20:56:04 32° SSW 20:56:25 31° SSW visible
28 Sep -2.9 20:04:47 10° W 20:07:59 42° SSW 20:10:07 18° SE visible
28 Sep -0.8 21:42:38 10° WSW 21:43:01 11° WSW 21:43:01 11° WSW visible
29 Sep -3.2 19:16:33 10° W 19:19:50 54° SSW 19:23:06 10° ESE visible
29 Sep -1.6 20:53:46 10° W 20:56:06 18° SW 20:56:44 17° SSW visible
30 Sep -1.9 20:05:13 10° W 20:08:00 25° SSW 20:10:29 12° SSE visible
01 Oct -2.3 19:16:47 10° W 19:19:50 33° SSW 19:22:53 10° SE visible
02 Oct -1.0 20:06:05 10° WSW 20:07:42 13° SW 20:09:19 10° S visible
03 Oct -1.2 19:17:07 10° W 19:19:31 19° SW 19:21:56 10° S visible
